Погода в Нарышкине

Россия / Орловская область     53°12′49″N   36°20′00″E
темп.,
°C
ветер,
м/с
пор.,
м/с
влажн.,
%
обл.,
%
осадки,
мм/ч
давл.,
гПа
погр.,
м
5 марта, пт
пт500:00−3з51193100 0.0 1003378
03:00−4с489499 0.1 1006234
06:00−6зсз369677 0.0 1008144
09:00−7зсз359540 0.0 1010122
12:00−3зсз249026 0.0 1011358
15:00−2зсз228562 0.3 1012555
18:00−5з228698 0.3 101421
21:00−8сз238794 0.3 101621
6 марта, сб
сб600:00−9з2289100 0.0 101621
03:00−9юз239494 0.0 101737
06:00−11зюз339465 0.1 101625
09:00−9зсз359775 0.1 1018177
12:00−5ссз6989100 0.1 1018694
15:00−4ссз578197 0.1 1018855
18:00−8сз23850 0.0 101821
21:00−9з348613 0.0 101975
7 марта, вс
вс700:00−10зюз47890 0.0 1018113
03:00−11зюз510890 0.0 1017201
06:00−9юз7158948 0.0 1013390
09:00−7юз9188474 0.0 1009679
12:00−4юз121992100 0.3 10031146
15:00−1зюз121895100 1.4 10021327
18:00−7з497367 0.9 1004150
21:00−9зюз5117933 0.9 1006196
8 марта, пн
пн800:00−10юз613760 0.0 1004268
03:00−7юз7149117 0.0 1002453
06:00−5зюз7139299 0.2 1000883
09:00−8зсз6128780 0.3 1002698
12:00−7зсз8127633 0.2 10061536
15:00−6з6107232 0.2 10081211
18:00−8з49832 0.0 1009203
21:00−11з458830 0.0 101179
9 марта, вт
вт900:00−12з349419 0.0 101264
03:00−11зсз339755 0.1 101337
06:00−12ссз379598 0.1 1014204
09:00−13ссз489299 0.1 1016415
12:00−12ссз5787100 0.0 1017609
15:00−10сз478399 0.0 1018694
18:00−13сз23860 0.0 101921
21:00−13з238517 0.0 102022